Silver Bay, MN

5:38 PM CDT on August 17, 2017 (GMT -0500)
Silver Bay Municipal

Weather History for KBFW - March, 2014

Change the Weather History Date:

Wednesday, March 5, 2014

  Actual Average Record
Temperature  
Mean Temperature -5 °F -  
Max Temperature 8 °F 25 °F 46 °F (2009)
Min Temperature -18 °F 5 °F -25 °F (2015)
Degree Days  
Heating Degree Days 70    
Moisture  
Dew Point -2 °F    
Average Humidity 84    
Maximum Humidity 100    
Minimum Humidity 67    
Precipitation  
Precipitation 0.00 in - - ()
Sea Level Pressure  
Sea Level Pressure 30.42 in    
Wind  
Wind Speed 4 mph (ENE)    
Max Wind Speed 10 mph    
Max Gust Speed 16 mph    
Visibility 9 miles    
Events Snow    
Averages and records for this station are not official NWS values.
T = Trace of Precipitation, MM = Missing Value Source: NWS Daily Summary

Daily Weather History Graph

Daily Weather History Graph

Search for Another Location

Airport or City:

Trip Planner

Search our weather history database for the weather conditions in past years. The results will help you decide how hot, cold, wet, or windy it might be!

Date:

Astronomy

Mar. 05, 2014 Rise Set
Actual Time 6:38 AM CST 5:56 PM CST
Civil Twilight 6:07 AM CST 6:27 PM CST
Nautical Twilight 5:32 AM CST 7:02 PM CST
Astronomical Twilight 4:56 AM CST 7:38 PM CST
Moon 8:44 AM CST (3/5) 11:27 PM CST (3/5)
Length of Visible Light 12h 19m
Length of Day
11h 18m
Waxing Crescent, 23% of the Moon is Illuminated
Mar 5
Waxing Crescent
Mar 8
First Quarter
Mar 16
Full
Mar 23
Last Quarter
Mar 30
New

Hourly Weather History & Observations

Time (CST) Temp. Windchill Dew Point Humidity Pressure Visibility Wind Dir Wind Speed Gust Speed Precip Events Conditions
12:13 AM -14.8 °F - -18.4 °F 84% 30.36 in 10.0 mi Calm Calm - N/A   Clear
12:33 AM -14.8 °F - -18.4 °F 84% 30.36 in 10.0 mi Calm Calm - N/A   Clear
12:53 AM -18.4 °F - -22.0 °F 84% 30.36 in 10.0 mi Calm Calm - N/A   Clear
1:13 AM -18.4 °F - -20.2 °F 91% 30.36 in 10.0 mi Calm Calm - N/A   Clear
1:33 AM -16.6 °F - -20.2 °F 84% 30.36 in 10.0 mi Calm Calm - N/A   Clear
1:53 AM -16.6 °F - -18.4 °F 92% 30.37 in 10.0 mi Calm Calm - N/A   Clear
2:13 AM -14.8 °F - -16.6 °F 92% 30.37 in 3.0 mi Calm Calm - N/A Snow Light Snow
2:33 AM -13.0 °F - -14.8 °F 92% 30.37 in 7.0 mi Calm Calm - N/A Snow Light Snow
2:53 AM -2.2 °F - -4.0 °F 92% 30.37 in 7.0 mi Calm Calm - N/A Snow Light Snow
3:13 AM 1.4 °F -6.2 °F -0.4 °F 92% 30.38 in 10.0 mi NE 3.5 mph - N/A   Clear
3:33 AM 5.0 °F -5.6 °F 3.2 °F 92% 30.38 in 7.0 mi NE 5.8 mph - N/A Snow Light Snow
3:53 AM 6.8 °F -5.9 °F 6.8 °F 100% 30.39 in 7.0 mi NE 8.1 mph - N/A Snow Light Snow
4:13 AM 6.8 °F -4.8 °F 6.8 °F 100% 30.40 in 4.0 mi NE 6.9 mph - N/A Snow Light Snow
4:33 AM 6.8 °F -6.9 °F 6.8 °F 100% 30.42 in 5.0 mi East 9.2 mph - N/A Snow Light Snow
4:53 AM 6.8 °F -7.8 °F 5.0 °F 92% 30.42 in 10.0 mi East 10.4 mph - N/A   Scattered Clouds
5:13 AM 6.8 °F -5.9 °F 5.0 °F 92% 30.43 in 10.0 mi East 8.1 mph - N/A   Scattered Clouds
5:33 AM 6.8 °F -5.9 °F 5.0 °F 92% 30.43 in 10.0 mi East 8.1 mph - N/A   Scattered Clouds
5:53 AM 6.8 °F -5.9 °F 5.0 °F 92% 30.44 in 10.0 mi East 8.1 mph - N/A   Scattered Clouds
6:13 AM 6.8 °F -4.8 °F 3.2 °F 85% 30.45 in 7.0 mi East 6.9 mph - N/A   Scattered Clouds
6:33 AM 6.8 °F -6.9 °F 3.2 °F 85% 30.46 in 10.0 mi East 9.2 mph - N/A   Scattered Clouds
6:53 AM 5.0 °F -8.1 °F 1.4 °F 85% 30.47 in 10.0 mi ENE 8.1 mph - N/A   Scattered Clouds
7:13 AM 5.0 °F -8.1 °F 1.4 °F 85% 30.47 in 10.0 mi ENE 8.1 mph - N/A   Scattered Clouds
7:33 AM 5.0 °F -4.1 °F 1.4 °F 85% 30.48 in 10.0 mi ENE 4.6 mph - N/A   Scattered Clouds
7:53 AM 6.8 °F -6.9 °F 3.2 °F 85% 30.48 in 10.0 mi ENE 9.2 mph - N/A   Scattered Clouds
8:13 AM 6.8 °F -6.9 °F 1.4 °F 79% 30.48 in 10.0 mi ENE 9.2 mph - N/A   Scattered Clouds
8:33 AM 6.8 °F -6.9 °F 1.4 °F 79% 30.49 in 10.0 mi East 9.2 mph - N/A   Scattered Clouds
8:53 AM 6.8 °F -7.8 °F 1.4 °F 79% 30.49 in 7.0 mi ENE 10.4 mph - N/A   Scattered Clouds
9:13 AM 6.8 °F -4.8 °F 1.4 °F 79% 30.50 in 10.0 mi East 6.9 mph 16.1 mph N/A   Clear
9:33 AM 6.8 °F -5.9 °F 1.4 °F 79% 30.51 in 10.0 mi ENE 8.1 mph - N/A   Clear
9:53 AM 6.8 °F -5.9 °F 1.4 °F 79% 30.51 in 10.0 mi ENE 8.1 mph - N/A   Clear
10:13 AM 6.8 °F -5.9 °F -0.4 °F 72% 30.51 in 10.0 mi ENE 8.1 mph - N/A   Clear
10:33 AM 6.8 °F -5.9 °F 1.4 °F 79% 30.51 in 10.0 mi ENE 8.1 mph - N/A   Clear
10:53 AM 8.6 °F -3.7 °F 1.4 °F 73% 30.52 in 10.0 mi NE 8.1 mph - N/A   Clear
11:13 AM 8.6 °F -2.6 °F 1.4 °F 73% 30.52 in 10.0 mi East 6.9 mph - N/A   Clear
11:33 AM 8.6 °F -5.5 °F 1.4 °F 73% 30.51 in 10.0 mi East 10.4 mph - N/A   Clear
11:53 AM 8.6 °F -3.7 °F -0.4 °F 67% 30.51 in 10.0 mi East 8.1 mph - N/A   Clear
12:15 PM 8.6 °F -3.7 °F -0.4 °F 67% 30.50 in 10.0 mi East 8.1 mph - N/A   Clear
12:33 PM 8.6 °F -3.7 °F -0.4 °F 67% 30.50 in 10.0 mi ENE 8.1 mph - N/A   Clear
12:53 PM 8.6 °F -4.7 °F -0.4 °F 67% 30.49 in 10.0 mi East 9.2 mph - N/A   Clear
1:13 PM 8.6 °F -3.7 °F 1.4 °F 73% 30.48 in 10.0 mi ENE 8.1 mph - N/A   Clear
1:33 PM 8.6 °F -4.7 °F -0.4 °F 67% 30.47 in 10.0 mi ENE 9.2 mph - N/A   Clear
1:53 PM 8.6 °F -5.5 °F 1.4 °F 73% 30.47 in 10.0 mi ENE 10.4 mph - N/A   Clear
2:13 PM 8.6 °F -3.7 °F 1.4 °F 73% 30.46 in 10.0 mi ENE 8.1 mph - N/A   Clear
2:33 PM 8.6 °F -3.7 °F 1.4 °F 73% 30.46 in 10.0 mi ENE 8.1 mph - N/A   Clear
2:53 PM 6.8 °F -6.9 °F 1.4 °F 79% 30.45 in 10.0 mi ENE 9.2 mph - N/A   Clear
3:13 PM 6.8 °F -5.9 °F 1.4 °F 79% 30.45 in 10.0 mi ENE 8.1 mph - N/A   Clear
3:33 PM 6.8 °F -5.9 °F 1.4 °F 79% 30.44 in 10.0 mi ENE 8.1 mph - N/A   Clear
3:53 PM 6.8 °F -4.8 °F 1.4 °F 79% 30.44 in 10.0 mi ENE 6.9 mph - N/A   Clear
4:13 PM 6.8 °F -5.9 °F 1.4 °F 79% 30.43 in 10.0 mi ENE 8.1 mph - N/A   Clear
4:33 PM 6.8 °F -3.5 °F 1.4 °F 79% 30.43 in 10.0 mi ENE 5.8 mph - N/A   Clear
4:53 PM 5.0 °F -8.1 °F -0.4 °F 78% 30.42 in 10.0 mi ENE 8.1 mph - N/A   Clear
5:13 PM 6.8 °F -5.9 °F 1.4 °F 79% 30.42 in 10.0 mi ENE 8.1 mph - N/A   Clear
5:34 PM 6.8 °F -5.9 °F 1.4 °F 79% 30.40 in 10.0 mi NE 8.1 mph - N/A   Clear
5:53 PM 5.0 °F -5.6 °F 1.4 °F 85% 30.39 in 10.0 mi ENE 5.8 mph - N/A   Clear
6:13 PM 5.0 °F -6.9 °F 1.4 °F 85% 30.38 in 10.0 mi ENE 6.9 mph - N/A   Clear
6:33 PM 3.2 °F -7.8 °F 1.4 °F 92% 30.38 in 10.0 mi ENE 5.8 mph - N/A   Clear
6:53 PM 3.2 °F -4.2 °F -0.4 °F 85% 30.38 in 10.0 mi ENE 3.5 mph - N/A   Clear
7:13 PM 3.2 °F -6.2 °F -0.4 °F 85% 30.38 in 10.0 mi East 4.6 mph - N/A   Clear
7:33 PM 3.2 °F - 1.4 °F 92% 30.37 in 10.0 mi Calm Calm - N/A   Clear
7:53 PM 1.4 °F - -0.4 °F 92% 30.36 in 10.0 mi Calm Calm - N/A   Clear
8:13 PM 1.4 °F -6.2 °F -0.4 °F 92% 30.35 in 10.0 mi ENE 3.5 mph - N/A   Clear
8:33 PM 1.4 °F - -0.4 °F 92% 30.34 in 7.0 mi Calm Calm - N/A Snow Light Snow
8:53 PM 1.4 °F - -0.4 °F 92% 30.34 in 2.5 mi Calm Calm - N/A Snow Light Snow
9:13 PM 1.4 °F - -0.4 °F 92% 30.33 in 2.0 mi Calm Calm - N/A Snow Light Snow
9:33 PM 1.4 °F - -0.4 °F 92% 30.32 in 2.5 mi Calm Calm - N/A Snow Light Snow
9:53 PM -0.4 °F - -2.2 °F 92% 30.32 in 4.0 mi Calm Calm - N/A Snow Light Snow
10:13 PM -4.0 °F - -5.8 °F 92% 30.32 in 5.0 mi Calm Calm - N/A Snow Light Snow
10:33 PM -5.8 °F - -7.6 °F 92% 30.31 in 10.0 mi Calm Calm - N/A   Clear
10:53 PM -5.8 °F - -7.6 °F 92% 30.30 in 10.0 mi Calm Calm - N/A   Clear
11:13 PM -5.8 °F - -7.6 °F 92% 30.30 in 10.0 mi Calm Calm - N/A   Clear
11:33 PM -7.6 °F - -9.4 °F 92% 30.29 in 10.0 mi Calm Calm - N/A   Clear
11:53 PM -5.8 °F - -7.6 °F 92% 30.29 in 10.0 mi Calm Calm - N/A   Clear